Theta_e
322 320 320 320 320 322 324 325 324 323 321 321 323 323 322 325 322 321 327 329 329 329 327 324 324 322 321 320 319 318 317 317 317 317 316 317 317 317 317 316 317 318 318 319 320 320 320 321 321 322 322 323 323 324 324 325 326 326 327 328 327 327 327 328 327 327 327 327 327 328 328 328 328 327 325 325 324 322 322 322 321 320 319 319 319 320 320
323 322 321 320 320 322 324 324 325 325 325 325 327 328 327 327 325 325 328 328 327 325 323 321 319 318 317 317 317 316 315 316 316 316 315 315 316 315 314 313 313 313 314 316 317 318 318 318 318 319 319 320 320 320 321 322 324 325 325 325 326 327 327 327 327 326 327 326 326 326 326 326 326 326 326 325 324 322 322 321 320 319 318 318 319 321 321
323 322 321 320 321 323 325 324 323 324 326 326 327 328 328 328 328 329 329 327 323 319 317 317 316 316 316 316 315 315 314 314 315 315 314 314 313 313 312 311 310 309 311 312 313 314 315 315 315 315 316 317 317 317 317 319 321 324 324 324 325 325 326 326 326 325 325 325 325 325 324 324 324 325 325 325 324 324 323 322 321 320 319 319 320 320 321
323 322 321 321 321 323 325 325 323 323 325 326 325 324 325 327 328 329 329 327 322 317 315 316 315 315 315 314 313 312 311 311 312 312 312 312 312 311 310 310 309 308 308 310 311 311 311 312 312 312 313 314 314 314 314 315 318 320 321 322 323 323 324 324 324 324 323 323 324 324 324 323 323 323 323 323 323 323 324 322 322 322 321 321 321 321 321
322 322 322 321 321 322 324 323 319 319 322 323 323 322 323 324 326 326 326 324 320 315 315 315 314 313 312 312 311 310 309 309 309 309 309 310 310 310 309 308 307 307 307 308 308 308 309 310 310 310 311 311 311 312 312 313 315 316 317 318 319 321 323 323 322 322 322 323 322 322 322 321 319 319 320 319 319 319 320 319 319 320 321 321 320 320 320
321 323 322 321 322 323 321 317 315 317 319 321 322 322 321 322 322 321 321 319 316 315 314 313 312 310 309 308 308 308 308 308 307 307 307 307 307 308 307 306 305 306 307 307 306 306 306 307 308 309 309 308 309 311 311 311 312 313 313 314 315 317 320 322 322 322 321 321 321 321 320 319 318 318 317 317 317 316 316 316 316 317 318 317 316 315 314
320 322 322 323 324 321 317 314 313 315 316 317 319 319 318 319 320 319 318 316 314 313 312 310 309 308 307 306 306 306 306 306 306 306 305 305 305 304 305 304 305 305 306 306 305 305 304 304 305 307 307 308 309 310 310 309 309 310 311 311 311 312 314 317 320 321 322 322 321 321 321 320 320 319 317 315 316 316 316 317 315 316 319 320 317 315 314
320 321 322 323 320 316 314 314 313 313 315 316 317 317 316 316 317 317 315 313 312 310 309 308 307 306 305 305 305 305 305 305 305 305 304 304 303 303 303 304 303 304 304 304 305 304 304 304 304 304 305 306 307 308 309 308 307 307 308 309 309 310 311 312 314 316 319 321 321 321 321 321 321 321 318 317 317 318 319 319 318 318 320 321 319 319 319
319 320 321 319 317 316 315 314 312 311 312 313 315 317 316 313 314 314 312 311 309 309 308 307 307 306 306 305 305 304 304 304 303 304 304 303 303 303 303 303 303 302 302 303 304 304 303 304 303 303 303 304 305 306 307 307 307 306 306 307 307 308 309 310 310 312 315 318 319 320 320 320 320 320 319 319 319 319 319 320 320 320 321 322 321 321 321
316 318 319 317 318 319 316 313 311 310 310 310 311 315 316 313 312 313 311 310 309 309 309 308 308 309 308 307 306 305 304 303 303 303 303 303 302 302 302 302 302 302 302 302 302 302 303 303 303 303 303 303 303 304 304 305 305 305 305 305 305 306 307 308 309 310 311 313 316 318 319 319 319 319 319 319 320 320 320 320 321 321 322 322 321 321 321
316 318 319 318 319 318 313 311 311 310 311 310 311 316 318 313 311 311 311 310 309 309 310 309 310 312 310 307 305 304 303 303 303 302 302 301 301 301 301 301 301 300 301 300 301 301 302 302 303 303 303 303 303 302 303 303 304 304 304 304 304 305 306 307 308 308 309 310 312 314 315 315 316 317 317 318 319 320 320 320 321 321 321 321 320 319 319
316 317 317 316 316 314 310 310 310 310 310 311 314 320 319 312 310 310 310 309 309 310 309 307 307 310 309 305 303 302 302 302 302 302 301 301 300 300 300 300 300 299 299 299 300 300 301 301 302 303 303 303 303 303 302 302 302 303 303 303 303 303 304 305 306 307 308 308 309 310 311 312 312 314 315 316 317 318 318 319 319 318 318 318 318 317 317
315 316 315 314 312 310 308 308 309 309 310 313 317 318 315 310 310 309 309 309 308 308 307 305 303 304 303 302 301 301 300 300 300 300 300 300 299 300 300 300 300 299 299 299 299 299 299 300 301 302 303 303 303 303 303 302 302 301 301 301 301 302 303 304 304 305 306 307 308 308 309 310 310 311 312 313 314 315 315 316 316 315 315 315 315 314 313
313 314 314 314 312 308 306 308 308 308 312 316 315 313 311 310 309 308 307 307 306 304 303 302 301 300 299 299 299 299 299 299 299 299 299 299 299 299 299 299 299 299 300 299 299 299 299 300 300 301 302 302 302 303 302 302 302 302 301 301 300 300 301 302 303 303 304 305 306 307 308 309 309 309 310 311 312 312 312 313 313 313 312 312 311 311 311
312 313 314 315 314 308 305 307 309 308 311 312 310 310 310 309 307 307 307 305 303 302 301 300 299 298 298 297 297 297 298 299 299 299 299 299 299 299 299 299 299 299 300 300 299 300 300 299 299 300 300 301 301 301 302 302 302 302 302 301 300 300 300 301 301 301 302 303 303 304 306 307 308 308 309 309 310 310 311 312 312 312 312 311 310 310 310
312 313 312 311 309 305 304 306 307 307 307 308 308 310 310 308 308 308 305 303 302 301 300 299 299 298 298 298 297 297 298 298 299 299 299 299 299 299 299 299 299 299 300 300 300 300 300 300 300 299 300 299 299 300 300 300 301 301 302 302 301 301 300 300 299 299 300 301 300 301 302 304 304 305 306 306 307 308 309 310 310 311 311 312 311 310 309
308 308 307 305 305 304 303 304 304 305 305 306 308 309 309 308 308 306 304 302 302 300 300 300 299 298 298 298 298 297 298 298 299 299 299 298 299 299 299 299 299 300 300 300 300 300 300 300 300 300 299 299 299 299 299 299 299 300 301 301 302 302 302 302 301 300 300 300 300 300 301 302 302 302 303 303 304 305 306 307 307 307 308 308 309 309 308
305 305 304 304 304 303 303 302 302 302 303 304 305 307 307 307 306 305 303 302 301 300 300 300 299 300 299 299 299 299 299 299 299 299 299 299 299 299 299 299 299 300 300 300 300 300 300 300 300 300 300 300 299 299 299 299 299 299 300 301 301 302 302 302 302 302 302 301 302 302 302 301 301 302 302 302 302 303 303 304 304 304 304 304 305 305 305
307 306 304 304 303 303 302 301 301 301 301 302 304 306 306 304 304 303 302 301 300 300 300 300 300 300 299 299 299 299 299 299 299 299 299 299 298 298 299 299 300 300 300 300 300 301 300 300 300 300 300 300 300 299 299 299 299 299 300 301 301 302 301 300 300 301 301 301 301 301 301 301 301 301 301 301 301 302 302 303 303 303 302 302 303 303 303
305 305 304 303 302 302 301 301 301 301 300 301 302 304 303 302 302 302 301 301 300 300 299 299 299 299 299 299 298 298 299 299 299 298 298 298 297 298 299 299 300 300 300 300 300 300 300 300 300 300 300 299 299 300 299 299 299 299 300 301 301 301 300 300 300 300 300 300 299 299 299 299 300 301 301 300 299 298 297 298 300 302 303 302 302 302 303
305 305 304 304 303 302 301 301 300 300 300 300 300 300 300 300 300 300 300 301 301 300 300 300 299 299 299 300 300 299 300 300 299 298 298 298 298 298 299 300 300 300 300 300 300 300 300 299 299 299 299 299 299 299 299 299 300 300 301 301 301 301 300 300 300 300 300 300 299 298 297 296 296 297 298 299 298 296 294 294 295 297 299 299 298 300 303
306 305 304 304 304 303 302 301 300 300 300 300 300 300 299 299 299 299 299 299 300 299 300 300 300 300 300 300 301 301 301 300 300 300 300 299 299 299 299 300 300 300 300 300 300 300 299 299 299 298 299 298 298 298 299 299 300 301 301 301 300 300 300 300 300 300 300 300 300 300 299 298 296 295 295 296 296 295 294 294 294 294 295 296 295 296 299
305 304 303 303 303 302 302 302 301 301 301 301 301 301 301 300 300 300 300 299 299 299 299 299 299 299 300 300 301 301 301 300 300 300 299 298 298 299 299 299 299 299 299 299 300 300 299 299 299 299 298 298 298 298 299 300 300 301 301 300 299 299 299 299 299 299 299 299 300 300 300 300 299 298 297 296 295 294 294 294 294 294 294 295 295 295 296
304 304 303 304 303 302 302 302 302 302 302 302 301 301 302 302 301 301 301 300 299 299 299 299 299 299 299 299 299 300 299 299 299 298 298 297 297 298 298 298 299 299 299 299 299 299 299 299 299 299 298 298 298 298 299 300 300 300 300 300 299 299 298 298 298 299 299 299 299 299 299 299 300 300 300 298 297 295 294 295 295 295 294 294 294 294 295
304 303 303 303 303 302 302 302 302 302 302 301 301 301 301 301 300 300 300 300 300 299 299 299 299 298 298 298 298 298 298 298 297 297 297 297 297 297 297 298 298 299 298 299 299 298 299 298 298 298 298 298 298 299 299 299 299 299 300 300 300 300 299 299 299 299 298 298 298 298 299 299 299 299 300 300 299 298 296 296 296 296 295 294 294 294 294
303 303 302 302 302 302 302 302 301 301 301 301 301 300 300 299 298 298 299 299 298 298 298 298 298 298 298 298 297 298 298 297 296 297 298 298 298 297 297 297 297 298 298 298 298 298 298 298 298 298 298 298 298 298 299 299 299 299 299 299 299 299 299 299 300 299 299 298 298 298 298 298 299 299 299 299 299 299 298 298 297 297 296 295 295 294 294
302 302 302 302 301 301 301 301 301 301 301 301 300 300 299 299 299 299 299 298 298 298 298 297 297 297 297 297 297 297 297 297 297 297 298 298 298 297 297 297 297 297 297 298 298 297 297 297 298 298 298 298 298 298 298 298 298 299 299 298 298 297 297 298 299 299 298 298 298 298 298 298 298 298 298 298 298 298 298 298 298 298 297 297 296 295 295
302 302 302 301 300 300 300 301 301 301 301 300 300 300 300 300 299 299 299 299 298 298 298 298 297 297 297 297 297 297 297 297 298 298 298 298 297 297 296 296 296 297 297 298 298 297 297 297 298 297 297 297 297 297 298 298 298 298 298 298 298 298 298 298 298 297 297 297 297 297 297 298 297 297 298 298 298 298 298 297 297 298 298 297 297 296 296
301 301 301 301 300 300 300 300 300 300 300 300 300 300 300 300 299 299 299 299 299 299 298 298 298 298 298 298 298 298 298 298 298 298 297 297 297 297 296 296 296 296 297 297 298 298 297 298 297 297 297 297 297 297 298 298 298 298 298 298 298 298 298 298 298 297 296 296 295 295 296 297 297 297 297 297 297 297 297 296 296 297 297 297 296 297 296
300 300 300 300 301 301 300 300 300 300 300 300 300 300 300 300 299 299 299 299 299 299 299 298 298 298 298 297 298 298 298 298 297 297 297 297 297 297 296 295 296 297 297 298 298 298 297 297 297 297 297 297 297 297 298 298 297 298 298 297 297 297 297 297 297 297 297 296 295 296 296 297 297 297 296 296 297 297 296 296 295 296 296 296 296 296 295
300 300 300 300 301 300 300 300 300 299 300 301 300 300 300 300 299 299 299 299 300 300 299 299 298 298 298 298 298 297 297 297 297 297 297 297 297 296 295 295 296 296 296 297 297 297 297 297 297 296 296 297 297 297 298 298 298 298 297 296 295 294 295 295 296 296 296 296 296 296 296 297 296 296 296 296 296 296 296 295 295 295 296 296 296 295 294
300 300 300 300 300 300 299 300 300 299 299 300 300 300 300 300 300 300 300 300 300 299 299 299 299 298 298 298 297 297 297 297 297 297 296 296 296 297 296 294 294 294 294 296 297 297 297 297 297 296 296 297 297 298 298 298 298 298 297 296 296 295 295 295 296 296 296 296 296 296 296 296 296 296 295 295 295 295 295 295 295 295 295 296 295 294 293
300 300 300 300 300 300 299 299 299 299 299 300 300 300 300 300 300 300 300 299 299 299 299 299 299 298 298 298 297 297 297 297 297 297 295 294 295 296 294 292 292 294 294 296 297 297 296 297 297 296 296 297 297 297 298 298 298 298 297 297 297 296 296 296 297 297 296 296 296 295 295 295 296 295 295 295 295 295 295 295 295 295 295 295 295 294 293
301 300 300 300 300 300 300 299 299 300 300 300 300 300 300 300 300 299 299 299 299 299 299 299 298 298 298 297 295 295 295 295 294 293 293 292 292 291 290 289 292 295 295 296 297 296 296 297 296 296 296 297 297 297 297 297 298 298 297 297 297 296 296 296 297 297 297 296 296 295 295 295 295 295 295 295 294 294 294 294 295 295 295 295 295 294 294
301 301 301 301 300 300 300 300 300 300 300 300 300 300 300 300 299 299 298 298 299 299 298 298 298 298 296 295 293 293 293 291 290 289 289 289 288 287 287 289 293 296 296 296 297 297 296 296 296 296 296 297 297 297 297 297 297 297 297 297 297 297 297 297 297 296 296 296 296 295 295 294 294 294 295 295 295 294 294 294 294 294 294 294 294 294 294
300 301 301 300 300 300 300 300 300 300 300 300 300 300 300 299 299 299 299 298 299 298 297 297 297 296 294 293 293 292 290 289 289 289 289 289 289 288 288 290 293 296 296 296 296 296 296 296 296 296 296 297 297 297 297 297 297 297 297 297 297 297 297 297 297 297 296 296 295 295 294 293 293 294 294 294 294 294 294 294 294 294 294 294 294 294 295
300 300 300 300 300 300 300 300 300 299 299 300 299 300 299 299 299 299 299 298 298 298 297 296 296 294 293 292 291 290 289 290 290 290 290 290 290 290 290 291 293 295 297 297 296 296 296 296 296 295 295 296 297 297 297 296 296 296 297 297 297 297 297 297 297 297 297 296 296 295 294 294 294 294 294 294 294 294 294 294 294 294 294 294 294 294 294
300 300 300 300 300 300 300 300 299 299 299 299 299 299 299 299 299 299 298 298 298 297 297 296 296 294 293 292 291 290 290 290 291 291 290 290 290 290 291 293 295 296 297 297 296 296 296 296 296 295 295 296 297 297 297 295 295 296 297 297 297 297 297 297 297 297 297 296 296 296 295 295 295 294 294 294 294 293 293 293 293 294 294 294 294 294 294
300 300 300 300 300 300 300 299 299 299 299 299 299 299 299 299 299 299 298 298 298 297 297 297 296 296 295 295 294 293 292 291 290 290 290 290 289 290 291 292 294 295 296 296 296 295 296 296 295 295 296 297 297 297 296 295 294 295 296 297 297 297 297 297 297 297 297 296 296 296 296 295 295 294 294 294 294 293 293 293 293 293 294 294 294 294 293
300 300 300 300 300 300 300 300 299 299 299 299 299 299 299 299 299 299 299 298 298 298 297 297 297 297 297 297 296 296 295 293 292 291 291 290 290 291 292 293 293 294 294 294 295 296 296 295 295 296 296 297 297 297 296 295 294 296 297 297 297 297 297 297 297 297 297 297 297 296 296 295 295 294 294 294 294 294 294 294 294 294 294 294 294 294 293
300 300 300 300 300 300 299 299 300 299 299 299 299 299 299 299 299 299 299 299 298 298 298 298 298 298 298 297 297 296 295 294 294 293 292 292 292 293 294 295 295 294 293 294 295 296 295 295 295 296 297 297 297 297 296 295 295 296 297 297 297 297 297 297 297 297 297 297 297 297 296 296 295 294 294 294 294 294 294 294 294 294 294 294 294 293 293
300 300 300 300 299 299 299 299 299 299 299 299 299 299 299 299 299 299 299 299 299 298 299 298 298 297 297 297 297 297 296 295 295 295 294 294 294 294 294 295 296 295 293 293 294 295 295 295 295 296 297 297 297 297 296 296 296 296 297 297 297 297 297 297 297 297 297 297 297 297 297 296 296 295 295 294 294 294 294 294 294 294 294 294 294 293 293
300 300 300 300 300 299 299 299 299 299 299 299 299 299 299 299 299 299 299 299 299 299 299 298 298 298 297 297 297 297 297 296 296 295 295 295 295 294 293 294 295 294 292 292 294 296 296 296 296 296 296 297 297 296 296 296 296 296 297 297 297 297 297 297 296 296 296 296 296 296 297 296 296 296 295 295 294 294 294 294 294 294 294 294 294 293 293
300 300 300 300 300 300 299 299 299 299 299 299 299 299 299 299 299 299 299 299 299 299 298 298 298 298 298 298 298 298 298 297 296 296 296 296 296 295 294 294 294 293 292 292 293 295 295 296 296 296 296 296 296 296 296 296 296 296 296 296 296 296 296 296 296 296 296 296 296 296 296 296 296 295 295 295 295 295 294 294 294 294 294 294 294 294 293
300 300 300 300 300 300 299 299 299 300 300 299 299 299 299 299 299 299 299 299 299 299 299 299 298 298 298 299 298 298 298 297 297 297 296 296 297 296 295 294 294 293 292 292 293 294 294 295 295 295 296 295 295 295 295 296 296 296 296 296 296 296 296 296 296 295 295 296 296 296 296 296 295 295 295 295 294 294 294 294 294 294 294 294 294 294 294
300 300 299 300 300 299 299 299 299 299 299 299 299 299 299 299 299 299 299 299 299 299 299 299 299 299 299 299 299 298 298 298 297 297 296 296 296 296 295 294 294 294 293 292 292 293 293 293 293 294 295 295 295 294 295 295 296 296 296 296 296 296 296 296 295 295 295 295 296 296 295 295 295 295 295 294 294 294 294 293 293 293 294 294 294 293 293
299 299 299 299 299 299 299 299 299 299 299 299 299 299 299 299 299 299 299 299 299 299 299 299 299 299 299 298 298 298 298 298 297 297 296 296 296 296 295 294 294 294 293 293 293 293 293 293 292 292 293 293 294 294 295 295 296 296 296 296 296 296 296 296 295 295 295 295 295 295 295 295 294 294 294 294 294 294 294 293 292 293 294 293 293 293 292
299 299 299 299 299 299 299 299 299 299 299 299 299 299 299 299 299 299 299 299 299 299 299 299 299 299 299 299 298 298 298 298 297 297 297 297 297 297 296 295 294 294 293 292 292 292 292 291 290 290 291 291 292 294 295 295 295 296 296 296 296 296 296 296 295 295 295 295 295 295 295 294 294 294 294 294 294 294 294 293 293 293 293 293 292 292 292
299 299 299 299 299 299 299 299 299 299 299 299 299 299 299 299 299 299 299 299 299 299 299 299 299 299 299 299 298 298 298 298 297 297 297 298 298 298 297 296 295 295 294 293 293 293 293 291 290 289 289 290 292 294 295 295 295 296 296 296 296 296 296 295 295 295 295 295 295 295 295 294 294 294 294 294 294 294 294 293 293 293 293 293 293 292 292
299 299 299 299 299 299 299 299 299 299 299 299 299 299 299 299 299 299 299 299 299 299 299 299 299 299 299 299 299 298 298 298 298 298 298 298 298 298 297 297 296 295 294 294 294 295 295 293 290 288 289 291 293 295 295 296 296 296 296 296 296 296 296 295 295 294 295 295 294 294 294 294 294 294 294 294 294 294 293 293 293 293 293 292 292 292 292
299 299 299 299 299 299 299 299 299 299 299 299 299 299 299 299 299 299 299 299 299 299 299 298 298 298 299 299 299 299 298 298 298 298 298 298 298 298 297 297 296 296 295 294 294 295 296 294 291 288 288 291 294 295 295 295 296 296 295 295 296 296 296 295 295 294 294 294 294 294 294 294 294 294 294 294 294 294 294 293 293 293 292 292 292 292 292
299 299 299 299 298 299 299 298 298 299 299 299 299 299 299 299 299 299 299 298 298 298 299 299 298 298 299 298 298 298 298 298 298 298 298 297 298 297 297 297 296 296 296 295 295 295 296 295 292 289 288 291 295 296 295 295 295 295 295 295 295 295 295 295 295 294 293 293 293 293 293 293 293 293 293 293 294 294 294 293 293 293 292 292 292 292 292
Wind_Speed
5 3 1 4 5 2 2 3 5 6 6 8 11 11 6 2 2 1 5 7 4 6 9 8 7 6 6 7 7 8 8 9 9 9 9 9 9 8 9 8 8 8 9 9 11 12 13 14 15 14 14 13 12 12 11 8 5 3 3 7 13 15 12 13 14 13 13 16 16 15 15 15 13 11 12 12 11 11 11 10 9 8 9 10 11 9 8
5 3 1 1 5 5 2 2 1 1 3 4 4 3 4 3 1 4 10 12 8 7 8 8 8 7 7 7 7 9 9 10 10 10 9 9 9 9 9 8 8 9 9 10 11 13 13 13 14 14 14 14 14 14 14 13 10 7 6 7 10 11 10 10 11 12 11 12 13 13 13 14 14 13 12 11 10 11 11 10 8 8 9 10 10 9 8
7 4 3 2 3 7 3 4 5 4 1 1 4 5 5 3 3 8 12 12 9 6 6 8 8 7 8 8 8 9 9 10 11 10 9 9 9 9 9 8 8 8 9 11 13 14 15 15 15 15 14 14 14 15 16 16 15 11 9 9 8 8 9 10 11 13 13 12 10 9 9 11 13 15 15 14 12 11 11 11 9 7 8 9 9 8 8
6 6 7 6 3 7 6 3 6 7 4 3 4 5 6 5 4 7 7 5 5 5 6 8 8 8 9 9 9 9 8 9 10 10 9 9 9 9 9 9 9 9 10 12 13 15 15 16 16 15 13 14 15 16 16 15 15 15 15 14 12 10 9 10 11 13 13 13 12 10 9 10 13 16 17 17 16 13 13 13 11 8 7 8 8 7 7
5 4 5 6 5 6 6 1 5 6 5 3 3 4 6 7 2 4 3 3 7 9 8 8 9 9 9 9 8 8 8 9 9 10 9 9 9 9 9 9 10 10 11 12 14 15 15 16 17 16 16 15 14 15 16 15 15 16 17 18 17 14 11 11 11 11 12 13 13 12 10 10 13 15 16 17 16 14 12 12 11 9 7 7 8 7 6
3 3 3 4 6 6 2 2 4 5 5 4 2 5 7 8 6 5 6 8 11 11 9 9 9 10 10 10 10 9 8 8 8 10 10 9 9 10 10 10 10 11 12 13 14 15 16 16 16 16 17 17 15 14 16 17 18 17 17 19 20 19 16 13 10 11 12 13 13 12 10 10 12 14 15 15 15 13 11 10 10 8 6 7 8 7 6
1 3 4 5 5 3 2 4 3 4 4 4 6 7 8 8 7 9 10 10 10 10 9 10 11 12 12 12 12 12 10 8 8 9 9 9 10 10 10 10 11 13 13 13 15 16 16 16 16 15 15 15 15 16 17 18 18 17 18 20 21 21 20 17 13 11 12 12 12 12 12 11 10 10 13 14 12 8 7 7 7 6 5 6 8 7 7
1 3 5 4 2 2 3 4 5 4 3 3 4 5 7 9 7 8 11 10 10 11 11 11 11 13 14 13 13 12 11 10 10 9 9 10 10 10 11 12 13 14 14 14 15 16 16 17 17 16 15 15 16 18 17 18 18 17 19 21 21 20 20 19 17 13 11 11 12 13 13 12 11 10 13 15 12 7 5 6 7 6 5 6 6 6 5
4 3 2 2 3 4 3 3 4 4 3 4 3 2 5 7 5 6 10 10 11 11 11 11 11 11 11 11 10 11 11 11 11 11 11 11 11 11 13 13 14 14 15 16 17 17 18 19 18 16 16 15 17 18 18 18 18 18 19 20 19 19 18 18 17 15 14 14 13 14 13 11 11 11 12 13 12 9 8 8 8 8 7 7 6 6 7
4 3 3 4 5 3 4 5 4 3 1 3 5 2 4 5 4 6 9 10 11 11 10 11 10 8 7 7 6 8 10 10 10 11 13 13 13 13 13 14 14 15 15 16 18 19 20 20 18 16 16 16 18 19 19 18 18 19 20 19 18 17 16 16 16 16 15 15 14 13 13 11 10 10 10 10 10 9 10 9 9 10 9 9 9 8 8
3 3 4 4 3 3 5 6 5 4 2 1 3 2 3 4 4 6 8 9 10 9 9 7 4 4 5 5 4 6 8 9 9 10 11 13 13 14 15 15 16 15 15 17 20 21 21 19 17 16 16 18 19 19 18 17 18 18 18 17 17 16 16 16 16 16 16 16 15 14 13 12 10 9 9 9 8 9 11 10 10 10 10 10 9 9 9
4 5 3 2 3 4 7 7 6 5 3 2 3 2 2 4 4 6 8 9 9 7 6 5 3 2 5 6 5 6 8 9 10 10 10 11 12 13 14 15 16 16 18 20 20 20 19 17 15 15 15 17 18 17 16 17 18 17 15 14 15 15 15 16 16 16 17 17 16 15 13 13 12 10 9 9 8 7 8 10 11 10 10 11 10 10 10
4 6 2 4 4 3 8 9 6 5 4 3 1 0 2 4 6 8 8 8 8 7 6 6 5 6 7 8 8 8 9 10 10 11 11 11 11 11 12 12 12 13 16 17 17 16 17 15 14 13 14 15 15 15 15 16 16 15 14 13 14 14 14 15 16 16 16 16 16 15 13 13 13 13 12 11 10 10 9 9 11 11 10 10 11 10 9
3 3 2 5 5 5 11 11 5 5 4 1 2 2 1 5 8 9 9 9 9 9 9 8 7 9 11 10 9 8 9 9 10 11 11 10 10 11 11 11 10 10 12 14 14 14 14 14 13 13 13 14 14 14 15 15 13 12 12 13 13 13 14 14 14 15 15 15 14 14 13 12 12 12 11 10 10 10 10 10 10 11 10 10 10 10 9
1 1 2 3 4 6 14 11 4 5 5 2 2 2 4 8 9 9 9 9 10 11 12 11 11 12 12 10 8 8 8 9 10 10 10 9 9 10 11 11 10 10 11 13 13 13 12 12 12 12 13 13 13 13 14 13 11 11 11 11 11 12 13 13 13 13 14 14 14 13 12 11 10 9 9 8 8 8 8 8 8 8 8 9 9 10 9
2 2 4 3 2 6 11 8 4 5 6 4 3 1 7 8 7 8 9 9 10 12 12 13 13 13 12 10 8 8 7 8 10 10 10 10 10 10 10 11 10 10 11 12 12 12 11 11 11 11 12 13 13 13 13 12 11 11 10 10 10 10 11 11 12 13 13 13 13 13 12 11 10 10 9 8 7 7 5 6 6 5 5 6 7 8 8
5 6 5 4 4 5 7 8 6 6 8 8 6 4 7 7 7 9 9 10 12 13 13 13 12 11 11 10 9 7 6 7 7 8 9 9 8 8 10 10 9 9 10 10 11 11 11 11 11 11 11 12 12 12 11 11 11 11 10 10 10 9 9 9 10 12 12 13 13 13 12 11 11 11 10 9 9 8 7 7 6 5 4 4 4 5 5
8 9 8 6 6 8 8 9 8 9 9 9 8 7 7 8 10 10 10 12 13 12 12 12 11 11 11 10 9 8 7 6 6 6 6 6 6 7 8 9 8 8 9 9 10 10 10 10 10 10 10 11 11 10 9 10 10 10 10 10 10 9 10 9 9 9 10 11 12 11 11 11 11 10 10 10 9 9 8 7 7 6 6 5 5 4 4
5 6 9 8 8 9 9 9 10 11 11 10 8 7 7 11 13 13 13 14 13 12 11 11 11 12 11 10 10 8 7 7 6 6 6 5 6 7 7 7 7 7 8 9 9 10 10 10 10 10 10 10 10 9 9 9 9 9 9 9 9 9 9 9 10 10 11 11 10 10 10 10 10 10 10 10 10 10 9 8 7 7 6 6 6 5 4
8 7 10 11 11 11 10 9 9 9 10 11 10 7 9 12 13 13 14 14 12 11 11 11 11 11 11 10 10 8 7 7 6 6 6 5 5 5 6 7 7 8 9 9 9 9 10 10 10 10 10 10 10 9 9 9 8 8 8 8 9 9 9 9 9 10 10 11 11 11 11 11 11 11 11 11 11 12 12 10 8 8 7 7 7 6 5
9 9 10 10 11 13 12 10 10 10 10 12 12 11 12 14 13 12 14 13 12 11 11 11 11 10 9 9 9 8 7 7 7 6 5 5 5 5 6 6 7 8 8 9 9 9 9 9 10 10 10 10 9 9 9 8 8 8 8 8 8 8 8 9 9 9 9 9 10 11 12 13 14 14 12 11 11 12 12 12 11 9 8 9 8 7 7
7 7 7 8 9 10 9 10 12 12 12 12 13 13 13 13 12 12 13 14 15 15 13 11 9 8 7 8 7 7 7 7 6 5 5 5 5 5 5 5 6 7 7 8 8 8 8 8 8 9 8 8 8 8 8 7 6 6 6 7 7 8 8 8 8 8 8 8 7 8 9 10 12 13 13 13 12 11 11 12 12 11 11 12 10 8 8
9 10 10 10 10 10 11 11 12 12 12 12 13 13 13 12 11 11 11 11 12 11 11 11 9 7 6 6 6 7 7 7 6 6 6 6 6 5 5 6 6 6 6 7 7 8 8 8 7 7 7 7 7 7 7 6 5 5 5 6 7 8 8 8 7 7 8 7 7 7 6 6 7 9 10 13 15 14 13 13 13 14 14 14 12 10 8
12 12 12 11 10 11 12 12 12 12 12 13 13 12 12 11 12 12 11 10 9 7 7 8 8 7 6 6 6 6 6 6 6 7 7 7 6 6 6 6 6 6 6 7 7 7 7 7 7 6 6 6 6 6 5 5 5 5 6 6 7 8 8 7 7 7 7 7 7 7 7 6 5 5 6 8 10 11 12 13 14 15 15 15 15 13 11
12 12 12 12 13 12 11 11 12 13 14 13 12 11 12 12 11 10 9 8 8 7 6 6 6 6 6 6 6 5 4 5 5 5 5 5 4 4 5 5 4 5 6 6 6 7 7 7 6 5 5 6 5 5 6 6 6 7 6 6 7 7 7 6 6 7 7 7 7 7 7 7 7 7 6 5 5 5 6 7 8 10 12 14 16 15 13
12 11 11 12 12 11 10 10 11 12 14 14 13 12 13 13 12 11 9 7 7 7 6 5 5 4 4 5 4 3 4 5 3 3 1 3 3 3 5 5 4 5 5 5 6 7 5 4 4 4 5 5 5 6 6 6 6 7 7 7 7 7 7 6 6 7 7 7 8 8 8 8 7 7 7 6 5 4 3 3 3 3 6 9 12 13 12
10 9 10 10 10 9 9 10 10 11 13 13 12 12 13 14 13 12 10 8 8 7 7 6 5 4 4 4 3 3 4 4 3 4 1 2 3 4 4 4 3 4 4 4 5 5 3 1 2 4 4 5 5 5 5 5 6 6 7 7 8 8 9 9 7 7 8 8 7 7 7 7 7 7 6 6 5 6 6 5 4 3 3 5 8 11 12
8 8 8 8 9 10 10 11 11 11 11 11 10 11 11 10 9 8 8 7 7 6 6 6 6 5 5 4 4 3 3 3 2 1 1 2 3 3 4 3 2 3 4 3 4 3 3 1 2 3 3 4 4 4 5 5 5 4 4 5 6 5 6 8 8 8 8 8 7 7 7 6 6 7 6 6 5 6 6 6 6 5 5 5 5 7 10
9 9 9 10 11 11 11 11 11 10 9 8 8 7 7 7 6 6 6 5 4 4 4 3 2 3 3 2 1 2 1 1 1 2 2 2 2 2 2 2 1 1 2 2 3 2 1 1 2 1 2 3 3 3 4 4 4 4 4 5 5 5 5 7 7 7 8 8 8 8 7 6 6 6 6 6 6 6 7 8 7 6 6 7 6 4 9
9 9 9 10 10 10 10 9 8 8 7 7 6 5 4 4 4 4 4 3 2 3 3 2 1 1 1 0 1 1 2 2 3 3 2 2 2 2 2 2 2 3 2 1 2 3 2 1 2 1 2 2 2 3 3 3 3 4 4 6 8 7 7 7 7 7 6 7 8 7 6 5 6 6 6 6 6 6 6 7 7 6 6 7 7 7 10
9 9 9 8 8 8 8 7 6 6 6 5 5 4 3 3 3 3 3 2 1 1 1 2 2 2 1 1 1 2 2 3 3 3 3 2 2 2 3 3 4 3 3 2 2 3 2 0 2 2 2 3 3 3 3 3 3 4 4 5 6 7 7 7 8 8 7 5 5 5 4 4 6 6 6 6 6 6 7 7 7 7 7 7 9 10 11
9 8 8 7 6 7 7 5 5 5 4 3 3 3 3 2 3 3 2 2 2 2 1 2 3 2 2 2 2 2 3 3 4 3 3 4 3 2 2 3 3 3 3 2 2 2 3 2 2 3 3 4 3 3 3 2 2 3 3 4 5 6 5 4 4 6 6 6 5 5 4 4 5 6 7 7 7 7 7 7 7 8 8 8 9 10 10
7 6 6 6 5 5 5 4 4 4 4 3 3 3 3 3 2 2 2 3 3 3 2 2 2 2 2 1 1 2 3 5 5 4 3 4 4 3 3 3 2 2 3 3 2 3 4 3 4 4 5 4 4 3 3 2 2 2 3 3 4 4 3 2 2 4 4 4 5 6 5 5 5 5 6 7 7 7 7 7 7 8 8 8 9 9 10
3 5 5 5 4 4 4 3 3 3 3 2 2 2 2 2 2 3 4 3 3 3 3 2 1 1 2 5 7 6 4 4 4 3 3 4 4 3 3 3 3 3 3 2 3 4 4 4 5 5 6 5 5 4 3 3 3 2 3 3 3 3 2 1 1 2 3 3 4 5 5 5 5 4 5 6 6 7 7 7 7 8 8 7 7 8 10
3 5 5 5 5 5 4 3 3 2 2 2 2 2 2 2 2 4 4 3 3 4 4 3 2 4 7 8 7 4 3 2 2 3 3 3 4 4 3 3 3 4 4 3 3 4 4 5 6 6 5 6 6 5 4 3 3 3 3 3 3 3 3 1 1 1 2 2 3 4 5 4 4 3 4 4 5 5 6 6 7 7 7 7 7 7 8
4 4 5 5 5 5 4 3 3 3 2 2 2 3 2 2 2 2 2 1 2 3 4 4 5 6 6 5 4 3 2 2 2 1 2 3 3 3 3 3 4 5 4 4 4 5 5 6 8 7 5 5 5 6 5 4 3 3 3 4 4 4 3 3 2 2 1 1 2 4 3 2 2 3 3 4 4 5 5 5 6 6 7 7 7 7 8
5 4 5 5 4 3 3 3 3 3 2 3 2 2 2 1 1 2 2 1 2 3 3 4 5 4 4 3 2 1 1 1 1 1 2 3 3 3 4 4 5 6 5 4 5 5 6 6 7 8 8 6 5 6 5 4 4 4 4 4 5 4 3 4 3 2 2 1 1 2 1 2 1 2 3 3 4 5 4 4 4 5 5 6 6 7 8
5 4 5 5 4 3 3 3 2 2 2 2 2 2 1 1 1 1 1 0 2 2 2 3 4 3 3 3 4 5 5 4 3 3 3 3 4 4 4 5 6 5 4 2 2 4 6 6 6 8 8 7 5 5 4 4 5 5 4 4 5 5 4 4 4 3 2 2 1 0 1 1 0 1 2 2 3 3 3 3 3 3 4 5 5 5 6
5 5 5 5 4 4 3 2 1 1 1 1 1 1 0 1 1 1 1 1 2 3 3 2 2 3 4 3 4 6 7 7 4 3 4 5 6 6 7 8 7 5 4 3 2 3 6 7 7 7 7 6 5 5 4 4 5 5 4 5 5 5 5 5 4 4 3 3 2 2 2 2 1 1 1 1 1 2 3 3 3 2 3 3 3 4 4
5 6 6 5 4 4 3 3 2 1 0 1 2 1 2 2 2 2 3 2 3 4 4 3 3 3 4 2 2 1 3 5 5 4 4 4 6 9 10 9 7 5 5 5 4 5 8 8 8 7 7 6 6 5 5 4 5 5 4 5 5 6 6 6 5 5 5 4 3 3 4 3 2 2 1 1 1 1 2 3 3 2 2 2 2 2 2
6 6 6 5 4 3 3 3 2 1 2 3 3 3 3 3 3 4 4 4 4 5 6 5 4 4 5 4 2 1 1 2 3 5 5 5 7 9 8 5 7 6 3 3 5 8 10 11 10 8 7 6 7 6 6 6 6 6 5 5 5 5 6 6 6 6 6 5 5 5 5 4 4 4 3 2 2 2 2 3 3 2 2 2 2 2 2
5 6 5 4 4 3 3 3 3 4 5 5 4 4 5 5 5 5 4 4 5 6 7 6 5 5 6 7 5 2 3 4 4 4 5 5 6 7 6 1 6 6 2 2 6 8 9 11 12 10 8 7 8 8 8 7 7 6 5 5 6 6 6 6 7 7 6 5 6 6 5 5 6 5 4 3 3 3 2 3 3 3 3 3 2 2 2
4 4 4 4 3 3 3 4 4 5 5 5 5 5 6 6 6 6 5 5 5 6 7 7 6 6 7 8 7 6 6 6 5 6 6 6 6 6 5 2 3 4 1 2 6 8 7 9 11 11 9 8 9 9 9 8 8 7 7 6 6 7 7 6 7 7 6 6 7 7 6 6 7 7 6 5 5 4 4 4 4 4 4 4 4 3 3
4 4 4 3 2 2 3 4 4 4 5 5 5 5 6 6 6 6 6 6 6 7 7 7 6 6 7 8 8 8 7 7 6 6 6 6 7 7 5 2 2 1 2 3 6 7 6 7 9 11 12 12 11 10 9 9 9 9 8 7 7 7 7 7 7 7 7 7 8 8 7 8 8 8 7 6 5 4 4 5 5 4 4 5 5 4 4
4 4 3 3 3 4 4 4 3 4 5 6 6 6 6 7 6 7 7 7 7 7 7 6 6 6 7 8 8 8 8 8 7 5 5 6 4 3 5 4 2 3 4 5 5 6 6 6 7 9 11 13 12 12 11 10 10 9 9 9 8 8 8 8 8 8 8 8 8 8 8 9 9 9 7 5 5 5 5 5 5 5 4 5 5 5 5
4 4 3 3 4 5 5 4 4 4 5 6 7 6 6 6 6 7 7 7 7 7 7 7 6 6 6 7 8 8 8 9 8 6 6 6 4 1 4 3 2 4 5 5 5 5 5 5 6 8 9 11 11 11 11 11 11 10 10 10 9 9 9 9 8 8 8 8 9 9 8 7 7 7 7 5 5 6 5 5 5 5 5 6 6 5 5
4 4 5 5 5 5 4 4 5 5 6 7 7 7 6 5 5 6 7 7 7 7 8 7 7 7 7 7 7 8 8 8 8 7 7 7 5 4 5 5 5 6 7 6 5 5 5 6 7 8 9 10 11 11 11 11 11 11 11 11 10 10 10 9 9 9 8 9 9 10 9 6 4 4 5 6 6 6 6 6 7 6 6 6 6 6 6
4 4 3 3 3 3 3 4 6 6 7 7 7 7 6 6 6 6 7 6 7 8 8 8 8 8 8 7 7 8 8 8 8 8 6 6 5 5 6 7 7 8 7 7 7 8 9 9 8 8 9 9 10 10 10 11 11 11 11 11 11 10 10 10 9 9 9 9 10 10 10 8 6 7 7 7 7 7 8 8 8 7 6 6 7 7 8
3 3 3 3 4 3 3 5 6 6 6 6 6 6 6 6 7 7 7 7 7 8 8 8 8 8 8 8 8 9 8 8 8 8 7 6 5 5 4 6 7 8 8 7 7 8 9 8 7 7 8 9 10 10 10 10 10 11 11 11 11 10 11 11 9 8 8 8 9 10 10 10 10 10 9 8 8 8 9 8 9 8 8 7 7 8 8
3 3 3 4 4 3 3 4 5 5 5 5 6 6 5 6 7 7 7 7 7 7 8 8 8 8 8 9 9 9 8 8 9 9 9 8 8 8 7 6 6 7 8 9 8 8 8 8 8 7 8 9 10 10 9 10 10 11 11 11 11 11 11 11 11 9 9 8 7 8 8 9 9 9 9 9 9 8 8 8 9 9 10 10 8 8 8
4 4 4 3 3 3 3 4 5 5 5 5 6 6 6 6 7 7 7 7 7 8 8 8 8 8 8 9 9 9 8 8 8 8 8 9 9 8 8 7 7 7 9 11 10 9 8 9 8 7 8 10 10 10 9 9 10 10 11 11 11 11 11 11 11 11 10 9 9 8 8 9 9 10 10 10 10 9 9 9 9 9 10 11 11 10 9
4 3 2 3 4 4 4 4 5 4 5 5 6 5 5 6 7 8 6 6 7 8 9 9 8 8 8 9 8 8 7 7 7 7 8 8 7 7 7 8 8 8 9 10 10 10 9 9 9 8 9 10 10 10 9 10 10 10 11 11 11 12 12 12 11 10 10 10 10 11 10 10 10 10 11 11 11 11 11 11 10 10 10 10 10 11 10
Wind_Direction
255 252 249 324 324 316 273 234 215 201 204 235 250 249 262 312 277 223 120 133 156 138 132 131 117 106 100 97 95 88 79 75 75 74 73 72 71 70 65 57 54 48 42 39 36 37 42 45 51 55 52 54 59 59 55 53 65 99 106 116 127 135 144 150 149 143 145 155 158 152 147 145 144 148 156 162 163 160 160 159 161 169 169 167 170 169 169
226 247 217 351 304 271 183 121 338 203 187 237 268 292 316 322 60 119 131 133 116 98 109 108 97 94 95 92 86 84 82 80 79 74 71 73 72 71 67 60 56 49 45 49 47 45 47 48 52 56 55 55 56 52 51 54 62 86 111 113 119 132 139 139 138 132 128 140 151 149 146 147 142 134 135 146 151 152 154 154 156 164 166 166 167 165 162
210 209 219 186 269 268 225 94 29 2 9 6 15 19 1 350 101 116 121 117 99 87 103 106 104 101 99 94 81 77 75 77 80 76 70 71 69 66 66 61 56 49 45 48 49 49 47 47 51 54 55 56 54 52 54 54 56 71 94 99 98 112 129 133 133 132 129 132 146 153 150 148 144 139 134 131 124 122 129 134 135 144 155 160 162 160 158
225 205 217 207 224 272 248 148 39 1 343 13 26 26 21 29 104 140 142 128 121 130 120 111 112 105 95 88 80 77 69 66 75 75 69 68 67 65 64 59 50 43 42 42 44 48 48 47 48 46 49 54 50 52 59 59 60 68 79 85 82 86 109 118 122 134 138 135 141 149 150 151 154 152 148 141 129 115 112 121 129 131 129 132 139 144 148
242 202 208 208 218 261 253 165 39 8 346 345 15 45 30 21 34 174 171 115 120 132 129 119 111 96 84 78 74 75 74 67 67 68 65 61 62 63 60 56 50 45 45 45 43 45 46 49 51 48 49 54 51 51 60 66 68 66 69 76 76 73 85 98 106 122 130 129 134 140 144 152 155 155 153 147 137 125 117 120 130 138 135 130 131 132 135
229 157 132 182 208 227 231 56 20 14 10 353 28 59 33 23 42 77 90 104 122 131 128 119 108 92 81 76 69 67 72 74 69 64 61 56 54 58 57 55 53 51 52 51 48 47 44 46 54 56 54 54 55 57 63 67 67 60 59 68 69 66 69 80 96 118 125 125 131 136 139 148 151 150 151 144 133 130 130 124 120 125 141 153 154 149 148
255 132 158 194 210 216 77 60 28 22 30 44 75 69 39 30 58 85 95 106 117 116 110 108 106 98 88 78 69 63 61 67 73 69 64 59 55 56 60 60 53 47 47 48 47 47 43 42 49 55 56 57 62 66 65 62 61 59 59 62 61 60 63 66 74 96 116 126 136 141 143 149 150 145 152 156 151 144 140 135 130 126 130 154 167 170 168
201 189 200 202 164 92 77 54 32 23 23 52 86 91 51 29 44 94 104 103 104 106 108 109 108 103 92 76 64 60 59 60 67 70 69 66 64 63 64 61 51 41 37 39 44 46 46 45 45 47 50 56 65 68 67 64 61 60 60 57 54 55 59 61 62 66 81 102 123 135 137 145 152 149 155 165 171 173 156 144 146 147 148 156 162 168 164
211 203 154 122 135 134 105 48 34 27 14 360 351 64 72 37 30 98 115 116 116 117 117 117 121 117 96 75 59 57 58 59 62 68 69 66 65 67 63 57 51 46 40 39 42 47 47 44 43 44 47 54 63 66 67 66 62 60 59 55 52 53 57 61 62 61 66 78 96 112 117 125 139 143 150 158 165 174 173 164 154 150 148 139 133 141 148
239 215 150 155 173 146 74 58 57 45 18 330 324 328 97 59 49 104 124 125 123 128 129 130 141 134 91 70 58 53 58 63 62 63 64 60 57 58 54 50 49 46 42 41 44 47 47 43 40 43 49 55 59 59 59 60 60 58 55 51 50 52 54 57 59 60 64 69 76 88 93 96 109 122 130 139 152 166 168 161 153 148 138 122 119 130 139
257 243 210 193 168 107 58 38 27 19 22 332 303 248 123 70 70 110 125 127 129 134 130 130 165 168 111 95 73 51 57 65 63 61 61 59 59 58 54 53 51 46 47 50 48 45 44 39 36 41 50 55 57 55 53 53 55 56 52 47 46 49 52 54 57 59 61 63 65 71 75 77 85 98 106 110 130 155 155 144 135 134 130 119 113 114 111
260 263 236 106 83 72 37 7 356 9 10 306 270 217 107 77 99 118 121 128 133 125 105 77 29 58 112 116 95 69 69 69 65 66 65 60 61 63 62 60 57 53 54 55 48 40 35 31 31 39 49 55 57 56 53 51 51 50 48 45 45 47 49 51 53 54 55 56 59 60 66 75 78 79 86 91 95 115 131 127 117 115 121 121 117 115 120
266 257 205 96 90 44 7 348 346 1 333 271 264 39 77 88 107 115 110 108 105 92 85 80 58 58 78 88 84 76 75 73 70 70 69 64 61 61 61 62 64 63 62 59 51 41 35 32 32 39 48 54 55 55 55 53 51 47 43 44 46 47 48 49 49 50 49 50 53 54 61 75 78 73 76 83 82 80 87 100 106 107 107 110 110 109 117
305 259 165 112 109 39 355 339 343 358 329 233 56 11 133 117 112 115 106 93 88 85 85 90 94 86 77 71 66 59 56 61 67 70 73 76 76 71 65 60 60 64 67 65 59 50 41 37 36 39 49 55 53 53 53 50 49 49 45 44 45 45 48 48 49 51 50 49 51 52 55 66 72 69 69 71 76 82 86 93 103 108 104 103 105 102 99
345 133 120 115 111 25 354 342 351 16 11 36 2 354 110 114 115 114 101 91 97 97 93 93 97 95 87 77 68 60 48 45 49 54 61 65 63 67 72 66 57 54 57 58 56 51 44 40 39 40 48 54 52 51 48 42 40 45 48 48 47 45 46 47 47 50 52 51 52 53 53 58 66 67 64 63 69 84 99 104 107 111 113 117 118 113 109
335 85 68 50 43 8 1 7 36 33 20 360 321 68 111 115 117 107 93 92 100 102 103 104 100 96 94 90 82 73 61 52 45 42 48 49 39 37 49 56 54 54 55 54 54 53 48 45 42 41 46 51 49 46 42 36 35 41 45 49 52 49 49 50 51 52 53 54 56 57 54 54 58 58 57 59 61 63 75 94 103 106 114 125 128 122 121
52 63 59 50 36 25 28 37 42 38 33 20 14 68 108 115 109 102 102 107 106 102 104 106 104 104 105 104 100 93 84 73 61 51 51 48 36 30 35 40 42 48 53 54 53 53 49 45 45 45 45 48 49 44 37 34 36 40 42 45 51 53 53 56 58 60 61 59 59 57 54 53 54 51 49 50 51 50 51 59 70 76 77 86 101 107 110
93 67 51 52 52 49 51 50 48 50 49 38 27 40 73 89 91 97 108 112 110 110 111 109 109 114 117 118 120 119 115 112 104 92 77 57 41 37 35 31 30 36 47 50 48 49 47 43 44 46 45 46 48 44 40 40 39 39 42 46 49 53 55 58 60 65 68 67 62 59 59 60 58 54 51 50 48 47 50 54 59 62 57 54 63 75 78
105 55 43 49 53 56 59 61 62 60 57 52 38 30 58 82 91 101 111 112 111 112 113 114 117 120 120 119 119 119 121 120 111 102 90 67 48 39 32 28 28 35 43 44 41 43 42 38 40 44 44 44 43 40 41 43 42 42 44 49 53 55 56 60 63 65 68 68 67 64 61 62 63 60 56 57 53 44 38 38 47 58 60 55 54 55 52
84 84 80 74 67 64 63 63 67 65 65 71 68 54 62 77 87 98 106 112 118 120 118 119 121 123 125 125 124 125 128 125 117 108 99 86 66 47 36 34 38 45 48 45 40 37 34 31 33 38 40 40 38 36 38 42 45 49 51 54 61 63 60 62 64 67 69 69 70 67 62 60 62 59 54 55 55 51 45 41 40 43 47 49 45 32 26
99 106 102 91 77 67 60 62 73 80 85 88 83 71 67 69 69 72 77 81 90 101 110 115 117 118 122 125 127 129 128 127 129 125 118 112 96 74 57 49 49 52 51 46 41 38 33 30 31 32 34 35 32 33 36 39 44 53 55 57 62 64 64 65 66 68 72 74 77 78 72 69 68 66 62 61 61 58 57 59 59 54 49 48 42 26 21
97 92 85 83 80 73 67 74 84 87 88 87 81 74 70 67 64 62 63 63 64 67 76 87 95 104 113 117 118 117 113 114 116 107 94 88 82 76 75 70 64 60 55 47 40 35 32 34 36 37 35 34 33 32 34 38 46 54 58 64 66 62 60 60 61 66 72 73 79 87 88 87 84 78 68 60 60 63 66 66 66 66 64 61 54 44 37
95 95 90 87 89 90 94 98 99 95 90 86 84 83 82 82 83 82 78 76 72 68 71 76 76 74 79 87 93 94 89 85 81 73 63 58 52 47 51 55 50 48 51 51 44 36 32 32 38 43 42 39 40 41 40 44 54 58 65 75 78 76 70 59 52 62 72 70 69 74 82 95 106 104 87 65 55 56 63 66 65 64 62 57 52 49 47
102 102 99 98 99 100 103 106 106 103 97 91 89 90 93 97 101 102 103 103 100 96 96 96 92 84 75 69 70 74 74 70 67 63 56 46 36 32 40 45 38 29 31 38 40 38 35 32 34 42 47 46 46 48 50 58 67 69 73 80 85 90 88 76 62 65 73 74 70 66 64 62 66 89 106 95 74 63 59 54 50 49 48 42 35 29 28
97 98 99 99 102 106 108 105 99 97 97 99 100 99 96 94 91 90 94 98 96 94 97 97 95 94 92 89 89 94 91 81 79 80 71 53 37 30 35 38 35 24 19 25 29 27 28 32 33 38 48 49 47 51 56 62 68 70 71 76 81 80 76 74 76 74 70 70 69 63 60 57 49 45 53 71 88 92 84 64 49 44 45 39 28 17 13
97 101 103 101 102 107 109 106 103 103 104 106 108 108 111 117 114 102 94 93 93 95 97 93 86 85 94 104 116 124 112 105 138 196 161 62 47 34 28 28 28 15 4 15 28 22 17 29 38 42 51 50 46 51 58 64 70 74 75 78 80 65 43 41 63 69 62 61 63 60 58 57 56 56 54 48 45 55 80 95 76 67 76 62 38 19 10
100 105 108 106 102 100 98 100 105 107 106 108 109 111 124 139 135 119 113 119 120 118 118 120 121 120 119 125 128 112 109 129 196 238 276 32 30 22 22 27 27 5 351 10 28 12 338 337 46 48 51 51 49 56 65 69 74 84 89 93 95 77 49 43 56 62 57 56 57 57 57 56 55 57 57 56 51 44 45 45 29 31 89 81 42 22 15
98 98 100 98 96 97 97 99 101 101 101 103 105 106 119 132 125 107 105 112 114 116 120 126 137 139 136 143 145 127 133 165 203 287 20 26 15 11 14 20 20 355 343 4 20 353 322 353 58 47 45 54 59 65 73 72 72 83 93 97 105 102 70 55 57 60 57 56 56 55 50 50 55 56 51 50 52 49 49 41 20 12 33 32 16 22 26
86 88 91 93 98 103 103 101 101 100 97 98 100 102 109 116 111 105 106 108 113 122 116 113 140 134 117 130 152 130 133 188 4 21 16 4 360 355 357 7 3 307 311 2 13 346 333 83 100 77 66 79 80 80 87 86 84 89 76 52 54 75 76 64 64 72 70 64 63 63 57 49 53 57 51 48 49 51 55 46 24 12 22 17 7 22 23
90 93 98 102 107 110 106 101 102 102 99 99 99 93 89 93 98 98 96 96 119 135 128 139 186 148 111 240 283 15 8 360 1 356 350 354 353 345 345 332 282 258 259 20 9 332 314 132 134 137 127 123 120 114 112 107 104 106 76 33 29 44 59 54 54 70 80 71 61 59 60 59 60 57 53 52 50 53 61 55 35 24 29 24 19 21 12
100 99 101 105 105 102 102 101 98 95 94 93 93 90 82 87 102 105 103 107 99 74 103 189 217 222 223 225 284 333 325 327 335 335 340 342 333 335 340 324 310 317 344 9 358 319 299 219 144 164 177 168 156 148 144 136 125 118 101 73 68 78 79 65 55 56 62 68 70 64 60 67 70 64 57 55 54 51 52 50 39 33 34 33 29 25 18
106 107 110 113 109 102 102 104 100 97 93 86 88 91 76 56 66 77 67 39 26 24 339 258 242 235 233 242 261 276 291 312 320 325 333 332 330 2 12 352 345 340 324 310 300 286 271 236 183 184 190 183 170 162 157 155 150 133 120 121 123 110 87 67 64 65 61 61 66 62 53 53 65 66 58 51 52 52 50 46 44 39 38 41 39 30 20
120 122 122 121 120 116 111 107 103 99 92 73 56 55 55 53 60 68 54 26 6 347 324 311 289 256 251 279 348 7 351 329 318 323 338 336 345 19 19 354 335 287 271 273 265 254 247 225 198 192 194 191 180 172 170 172 172 161 151 155 153 130 94 61 69 77 69 61 63 61 51 41 46 61 65 57 53 55 54 48 47 46 43 45 47 38 25
108 110 112 110 109 108 108 108 100 89 86 85 62 44 60 69 52 46 42 14 345 353 12 8 322 277 53 57 59 56 33 344 333 5 18 341 326 324 317 312 295 262 254 257 251 243 234 217 202 198 201 202 193 182 187 191 183 177 179 180 179 170 158 137 82 59 46 52 72 69 55 44 41 45 61 68 66 64 62 53 50 51 50 49 51 43 32
111 103 107 107 100 94 96 101 94 74 63 80 81 65 64 70 59 55 41 358 347 20 36 32 34 56 63 66 72 84 89 45 15 23 13 338 322 308 296 298 289 268 250 238 242 244 229 213 205 199 202 209 204 198 204 208 203 204 204 198 199 203 207 203 135 85 51 48 62 51 39 48 56 44 48 67 71 67 66 61 54 54 53 51 49 40 31
147 126 121 118 108 100 97 89 76 57 37 51 79 89 82 62 51 62 59 25 32 61 61 52 54 63 71 79 93 116 117 95 67 29 349 339 330 314 309 307 294 281 268 247 239 240 228 214 209 207 211 217 213 211 213 216 219 224 221 215 219 218 211 205 184 135 98 65 63 54 47 83 105 67 52 66 65 57 63 68 61 56 55 52 49 44 39
172 156 136 127 120 114 108 92 71 62 65 65 70 88 98 87 32 23 35 65 94 95 90 87 87 91 98 101 107 143 158 153 177 228 306 322 315 310 309 293 270 268 269 255 236 228 221 210 206 209 219 227 223 214 213 223 242 249 234 219 225 227 214 208 202 169 143 135 80 56 4 228 183 71 52 68 69 59 60 68 64 61 61 55 51 50 49
176 174 151 139 136 129 113 90 59 64 93 103 86 71 67 51 20 4 339 140 123 115 106 104 113 133 167 191 199 199 192 195 222 242 261 284 288 287 277 263 257 262 266 245 192 204 212 206 196 202 215 230 234 228 229 237 240 243 238 223 223 227 222 219 218 210 203 205 187 183 305 298 344 33 25 54 74 70 63 65 69 72 71 65 60 58 53
173 181 165 152 149 143 131 122 87 66 81 106 99 93 63 330 332 287 254 202 156 168 189 177 168 201 226 233 224 205 185 175 190 232 258 268 273 272 264 256 255 264 266 257 231 211 213 210 203 204 215 229 236 234 236 232 218 220 233 234 223 220 225 227 224 223 225 224 214 224 259 287 309 319 340 26 90 104 102 104 108 99 84 77 73 72 66
171 174 169 168 174 174 168 165 150 112 329 306 308 281 254 262 263 248 248 229 194 203 227 240 244 254 261 273 295 265 180 162 172 201 233 248 255 261 260 246 225 221 244 251 234 217 211 204 201 206 215 224 225 219 215 216 216 222 239 238 223 219 226 229 230 232 230 223 220 229 238 247 252 252 264 270 232 180 155 151 149 134 109 107 102 90 88
165 169 173 179 189 196 202 208 215 239 263 278 287 276 264 260 258 258 260 245 215 216 237 251 259 273 280 278 272 270 257 224 206 202 210 228 244 258 264 228 171 172 203 209 197 210 214 205 200 208 216 217 217 216 211 213 219 226 239 241 232 229 230 229 235 245 243 231 227 231 226 219 222 227 228 234 239 229 200 184 181 171 149 139 139 130 125
165 172 181 192 201 210 225 239 254 270 277 281 281 273 264 260 256 255 260 253 229 227 242 249 247 255 275 283 282 251 241 258 250 228 233 249 256 274 299 338 143 157 190 196 190 205 213 204 204 215 221 216 214 211 206 210 222 229 237 241 237 235 237 237 239 246 246 238 237 238 231 226 228 225 213 216 235 237 221 203 197 187 172 160 158 163 165
176 185 196 207 212 220 240 251 261 271 275 279 279 270 261 256 252 250 254 251 241 240 248 251 246 243 250 260 266 261 251 251 247 239 246 248 237 245 280 296 150 155 246 236 204 207 209 202 205 213 218 219 219 212 205 214 230 233 234 239 240 239 243 245 246 249 249 243 241 240 235 234 238 234 219 216 227 226 210 206 208 198 181 176 182 182 178
185 199 204 209 216 233 242 246 256 270 277 280 281 273 261 254 248 247 252 255 254 255 255 252 252 254 251 250 255 259 259 259 253 240 243 248 229 209 209 207 167 190 258 238 217 221 226 217 212 213 214 219 227 223 216 224 236 236 234 240 244 242 244 246 246 249 249 244 243 244 237 230 233 234 225 216 217 218 211 209 213 208 191 184 189 191 187
194 204 208 210 223 240 247 252 268 282 282 280 277 267 262 262 261 258 259 258 254 254 254 253 255 258 255 253 256 257 260 269 273 262 262 279 274 187 163 167 197 226 235 232 231 242 249 240 228 223 220 223 229 229 225 229 237 239 237 241 244 244 246 249 249 248 246 242 240 240 234 227 227 232 231 221 216 220 218 212 211 210 201 193 195 199 198
199 205 211 221 235 244 252 263 276 282 282 281 277 267 260 262 264 261 259 258 254 251 251 250 254 258 257 257 258 256 255 262 267 259 258 278 295 140 142 163 210 227 235 243 248 255 263 261 252 243 237 233 231 228 226 231 236 237 236 239 243 244 245 248 248 245 242 239 235 234 238 244 239 231 226 220 216 215 212 207 209 212 206 197 198 203 203
203 208 210 218 231 241 248 258 268 273 273 273 275 273 271 269 267 262 259 258 255 253 250 247 249 255 257 255 255 255 255 260 263 254 245 250 253 226 198 205 228 243 250 248 242 242 254 261 262 261 253 241 230 224 223 228 233 233 233 235 239 240 243 247 247 241 236 235 233 237 252 278 285 241 223 222 221 216 210 207 213 219 213 198 195 200 203
206 215 216 222 237 251 257 258 263 268 269 269 272 277 281 280 275 271 268 263 257 254 254 251 250 251 253 253 254 256 257 261 265 262 249 241 247 241 213 200 213 239 249 242 234 240 250 258 263 265 256 238 225 222 225 228 229 230 231 231 232 235 241 245 245 240 236 233 231 233 242 249 239 224 224 227 226 225 220 214 213 217 214 203 200 206 207
194 204 207 217 227 236 244 250 253 258 264 269 272 276 277 276 273 271 269 267 263 259 259 258 253 250 248 245 246 250 251 251 255 262 263 260 263 262 238 211 216 232 243 242 239 242 248 255 260 254 238 224 217 220 227 230 229 228 231 232 232 233 238 243 245 248 250 246 236 231 234 235 229 226 230 234 234 233 230 223 218 219 216 210 208 210 208
186 199 205 213 221 228 246 265 275 283 290 293 298 300 292 280 275 275 274 274 275 273 271 270 267 261 254 246 241 243 247 246 246 253 262 266 265 264 259 248 237 236 241 245 243 237 239 251 257 243 218 210 212 217 224 229 230 230 231 233 234 234 239 247 254 263 272 272 260 246 241 244 246 247 247 243 239 237 233 226 221 221 218 216 218 219 213
210 219 222 229 247 269 283 288 294 304 308 301 294 291 285 277 276 279 279 279 280 281 278 276 274 270 264 256 248 243 245 247 247 247 252 258 262 259 253 251 256 257 254 251 247 235 228 236 245 234 208 201 207 215 218 220 226 229 230 232 234 238 241 247 252 255 257 260 263 263 259 255 254 255 255 250 243 239 235 229 224 222 220 219 222 224 221
226 234 252 258 255 257 266 268 268 279 291 290 285 288 295 294 291 288 283 277 279 285 286 285 281 274 267 263 258 251 245 246 251 252 253 258 264 260 246 240 246 251 248 245 247 242 226 216 221 225 212 202 206 216 218 215 218 225 229 230 234 240 243 247 249 247 242 240 243 247 252 255 254 252 252 249 242 235 232 228 224 223 224 221 219 219 219